Weather History for Arctic Village, AK

Change the Weather History Date:

Wednesday, February 13, 2013

  Actual Average Record
Temperature  
Mean Temperature -22 °F -  
Max Temperature -16 °F -12 °F 30 °F (2006)
Min Temperature -29 °F -30 °F -60 °F (1971)
Degree Days  
Heating Degree Days 88    
Moisture  
Dew Point -27 °F    
Average Humidity 69    
Maximum Humidity 83    
Minimum Humidity 58    
Precipitation  
Precipitation 0.00 in - - ()
Sea Level Pressure  
Sea Level Pressure 29.75 in    
Wind  
Wind Speed 0 mph (NE)    
Max Wind Speed 4 mph    
Max Gust Speed -    
Visibility 9 miles    
Events      
Averages and records for this station are not official NWS values.
T = Trace of Precipitation, MM = Missing Value Source: NWS Daily Summary

Daily Weather History Graph

Daily Weather History Graph

Search for Another Location

Airport:

Trip Planner

Search our weather history database for the weather conditions in past years. The results will help you decide how hot, cold, wet, or windy it might be!

Date:

Astronomy

Feb. 13, 2013 Rise Set
Actual Time 9:07 AM AKST 4:47 PM AKST
Civil Twilight 8:04 AM AKST 5:49 PM AKST
Nautical Twilight 6:58 AM AKST 6:56 PM AKST
Astronomical Twilight 5:54 AM AKST 8:00 PM AKST
Moon 8:27 AM AKST (2/13) 11:34 PM AKST (2/13)
Length of Visible Light 9h 45m
Length of Day
7h 39m
Waxing Crescent, 15% of the Moon is Illuminated
Feb 13
Waxing Crescent
Feb 17
First Quarter
Feb 25
Full
Mar 4
Last Quarter
Mar 11
New

Hourly Weather History & Observations

Time (AKST) Temp. Windchill Dew Point Humidity Pressure Visibility Wind Dir Wind Speed Gust Speed Precip Events Conditions
12:16 AM -18.4 °F - - N/A% 29.71 in 10.0 mi Calm Calm - N/A   Clear
12:36 AM -23.8 °F - - N/A% 29.72 in 10.0 mi Calm Calm - N/A   Clear
12:56 AM -23.8 °F - - N/A% 29.72 in 10.0 mi Calm Calm - N/A   Clear
1:16 AM -25.6 °F - - N/A% 29.72 in 10.0 mi Calm Calm - N/A   Clear
1:36 AM -22.0 °F - - N/A% 29.73 in 10.0 mi Calm Calm - N/A   Clear
1:56 AM -23.8 °F - - N/A% 29.73 in 10.0 mi Calm Calm - N/A   Clear
2:16 AM -25.6 °F - - N/A% 29.73 in 10.0 mi Calm Calm - N/A   Partly Cloudy
2:36 AM -23.8 °F - - N/A% 29.73 in 10.0 mi Calm Calm - N/A   Scattered Clouds
2:56 AM -22.0 °F - -29.2 °F 69% 29.73 in 10.0 mi Calm Calm - N/A   Partly Cloudy
3:16 AM -25.6 °F - - N/A% 29.74 in 10.0 mi Calm Calm - N/A   Clear
3:36 AM -25.6 °F - - N/A% 29.73 in 5.0 mi Calm Calm - N/A   Clear
3:56 AM -25.6 °F - - N/A% 29.74 in 10.0 mi Calm Calm - N/A   Clear
4:16 AM -27.4 °F - - N/A% 29.74 in 10.0 mi Calm Calm - N/A   Clear
4:36 AM -27.4 °F - - N/A% 29.74 in 10.0 mi Calm Calm - N/A   Clear
4:56 AM -27.4 °F - - N/A% 29.74 in 10.0 mi Calm Calm - N/A   Clear
5:16 AM -25.6 °F - - N/A% 29.74 in 10.0 mi Calm Calm - N/A   Clear
5:56 AM -27.4 °F - - N/A% 29.74 in 10.0 mi Calm Calm - N/A   Clear
6:16 AM -27.4 °F - - N/A% 29.74 in 10.0 mi Calm Calm - N/A   Clear
6:36 AM -27.4 °F - - N/A% 29.74 in 10.0 mi Calm Calm - N/A   Clear
6:56 AM -25.6 °F - - N/A% 29.74 in 10.0 mi Calm Calm - N/A   Clear
7:16 AM -29.2 °F - - N/A% 29.74 in 7.0 mi Calm Calm - N/A   Clear
7:36 AM -27.4 °F - - N/A% 29.74 in 10.0 mi Calm Calm - N/A   Clear
7:56 AM -27.4 °F - - N/A% 29.74 in 9.0 mi Calm Calm - N/A   Clear
8:16 AM -27.4 °F - - N/A% 29.74 in 10.0 mi Calm Calm - N/A   Clear
8:36 AM -29.2 °F - - N/A% 29.74 in 10.0 mi Calm Calm - N/A   Clear
8:56 AM -27.4 °F - - N/A% 29.74 in 10.0 mi Calm Calm - N/A   Clear
9:16 AM -27.4 °F - - N/A% 29.74 in 10.0 mi Calm Calm - N/A   Clear
9:36 AM -29.2 °F - - N/A% 29.75 in 9.0 mi Calm Calm - N/A   Clear
9:56 AM -29.2 °F - - N/A% 29.75 in 8.0 mi Calm Calm - N/A   Clear
10:16 AM -29.2 °F - - N/A% 29.75 in 9.0 mi Calm Calm - N/A   Clear
10:36 AM -25.6 °F - - N/A% 29.75 in 9.0 mi Calm Calm - N/A   Clear
10:56 AM -25.6 °F - - N/A% 29.76 in 8.0 mi Calm Calm - N/A   Clear
11:16 AM -25.6 °F - - N/A% 29.76 in 2.5 mi Calm Calm - N/A   Clear
11:36 AM -25.6 °F - - N/A% 29.76 in 10.0 mi Calm Calm - N/A   Clear
11:56 AM -25.6 °F - - N/A% 29.77 in 9.0 mi Calm Calm - N/A   Clear
12:16 PM -22.0 °F - -27.4 °F 76% 29.76 in 10.0 mi Calm Calm - N/A   Clear
12:36 PM -20.2 °F - - N/A% 29.77 in 8.0 mi Calm Calm - N/A   Clear
12:56 PM -18.4 °F - - N/A% 29.77 in 10.0 mi Calm Calm - N/A   Clear
1:16 PM -18.4 °F - - N/A% 29.77 in 3.0 mi Calm Calm - N/A   Clear
1:36 PM -18.4 °F - - N/A% 29.77 in 10.0 mi Calm Calm - N/A   Clear
1:56 PM -18.4 °F - - N/A% 29.77 in 10.0 mi Calm Calm - N/A   Clear
2:16 PM -16.6 °F - - N/A% 29.77 in 10.0 mi Calm Calm - N/A   Clear
2:36 PM -16.6 °F - - N/A% 29.77 in 10.0 mi Calm Calm - N/A   Clear
2:56 PM -16.6 °F - - N/A% 29.77 in 10.0 mi Calm Calm - N/A   Clear
3:16 PM -18.4 °F - - N/A% 29.77 in 10.0 mi Calm Calm - N/A   Clear
3:36 PM -16.6 °F - - N/A% 29.76 in 10.0 mi Calm Calm - N/A   Scattered Clouds
3:56 PM -16.6 °F - - N/A% 29.76 in 5.0 mi Calm Calm - N/A   Overcast
4:16 PM -16.6 °F - - N/A% 29.77 in 10.0 mi Calm Calm - N/A   Mostly Cloudy
4:36 PM -18.4 °F - - N/A% 29.76 in 10.0 mi Calm Calm - N/A   Partly Cloudy
4:56 PM -18.4 °F - - N/A% 29.77 in 10.0 mi Calm Calm - N/A   Clear
5:16 PM -18.4 °F - -29.2 °F 58% 29.77 in 10.0 mi Calm Calm - N/A   Clear
5:36 PM -18.4 °F - -29.2 °F 58% 29.77 in 10.0 mi Calm Calm - N/A   Clear
5:56 PM -20.2 °F - -23.8 °F 83% 29.77 in 10.0 mi Calm Calm - N/A   Scattered Clouds
6:16 PM -20.2 °F - - N/A% 29.77 in 10.0 mi Calm Calm - N/A   Mostly Cloudy
6:36 PM -18.4 °F - -25.6 °F 70% 29.77 in 10.0 mi Calm Calm - N/A   Partly Cloudy
6:56 PM -18.4 °F - - N/A% 29.77 in 10.0 mi Calm Calm - N/A   Clear
7:16 PM -18.4 °F - - N/A% 29.76 in 6.0 mi Calm Calm - N/A   Clear
7:36 PM -20.2 °F - - N/A% 29.77 in 10.0 mi Calm Calm - N/A   Clear
7:56 PM -20.2 °F - - N/A% 29.76 in 10.0 mi Calm Calm - N/A   Clear
8:16 PM -20.2 °F -30.9 °F - N/A% 29.77 in 10.0 mi NE 3.5 mph - N/A   Scattered Clouds
8:36 PM -20.2 °F - - N/A% 29.77 in 10.0 mi Calm Calm - N/A   Scattered Clouds
8:56 PM -22.0 °F - - N/A% 29.77 in 10.0 mi Calm Calm - N/A   Partly Cloudy
9:16 PM -20.2 °F -30.9 °F - N/A% 29.77 in 10.0 mi NNE 3.5 mph - N/A   Clear
9:36 PM -22.0 °F -33.0 °F - N/A% 29.77 in 10.0 mi NE 3.5 mph - N/A   Clear
9:56 PM -23.8 °F - - N/A% 29.77 in 9.0 mi Calm Calm - N/A   Clear
10:16 PM -23.8 °F - - N/A% 29.77 in 9.0 mi Calm Calm - N/A   Clear
10:36 PM -23.8 °F - - N/A% 29.77 in 10.0 mi Calm Calm - N/A   Clear
10:56 PM -23.8 °F - - N/A% 29.77 in 10.0 mi Calm Calm - N/A   Clear
11:16 PM -23.8 °F - - N/A% 29.78 in 10.0 mi Calm Calm - N/A   Clear
11:36 PM -22.0 °F - - N/A% 29.77 in 10.0 mi Calm Calm - N/A   Clear
11:56 PM -25.6 °F - - N/A% 29.77 in 10.0 mi Calm Calm - N/A   Clear